,,Stat6,,Stat2,,Stat8,,Stat9,,Stat10,,Wind1,,Wind1,
time,status,PA1M_AVG,status,PR1M_SUM,status,RH1M_AVG,status,SR1M_AVG,status,TA1M_AVG,status,W1dAve1m,status,W1sAve1m,
2003-10-15, 00:00:00,VALID,919.574,VALID,0,VALID,96.1651,VALID,-0.0679233,VALID,20.1457,VALID,186,VALID,0.0268895,
2003-10-15, 00:01:00,VALID,919.545,VALID,0,VALID,96.2617,VALID,-0.101885,VALID,20.1492,VALID,182,VALID,0.0851753,
2003-10-15, 00:02:00,VALID,919.532,VALID,0,VALID,96.2338,VALID,-0.101885,VALID,20.142,VALID,162,VALID,0.330433,
2003-10-15, 00:03:00,VALID,919.511,VALID,0,VALID,96.3317,VALID,-0.0679233,VALID,20.1552,VALID,187,VALID,0.228516,
2003-10-15, 00:04:00,VALID,919.499,VALID,0,VALID,96.3368,VALID,0.0679233,VALID,20.1539,VALID,226,VALID,0.226181,
2003-10-15, 00:05:00,VALID,919.482,VALID,0,VALID,96.3838,VALID,0,VALID,20.134,VALID,231,VALID,0.406613,
2003-10-15, 00:06:00,VALID,919.459,VALID,0,VALID,96.3635,VALID,0.0339617,VALID,20.1213,VALID,232,VALID,0.0197173,
2003-10-15, 00:07:00,VALID,919.458,VALID,0,VALID,96.4194,VALID,0.0169808,VALID,20.1243,VALID,184,VALID,0.338605,
2003-10-15, 00:08:00,VALID,919.455,VALID,0,VALID,96.4715,VALID,0,VALID,20.1415,VALID,162,VALID,0.354469,
2003-10-15, 00:09:00,VALID,919.483,VALID,0,VALID,96.5021,VALID,0.0509425,VALID,20.14,VALID,190,VALID,0.353051,
2003-10-15, 00:10:00,VALID,919.493,VALID,0,VALID,96.4296,VALID,0.0169808,VALID,20.141,VALID,236,VALID,0.606517,
2003-10-15, 00:11:00,VALID,919.503,VALID,0,VALID,96.427,VALID,0.0169808,VALID,20.1146,VALID,238,VALID,0.478766,
2003-10-15, 00:12:00,VALID,919.515,VALID,0,VALID,96.511,VALID,0.0339617,VALID,20.1017,VALID,239,VALID,0.444222,
2003-10-15, 00:13:00,VALID,919.518,VALID,0,VALID,96.6152,VALID,0.0339617,VALID,20.0883,VALID,203,VALID,0.358445,
2003-10-15, 00:14:00,VALID,919.521,VALID,0,VALID,96.6483,VALID,0.0509425,VALID,20.0987,VALID,136,VALID,0.633956,
2003-10-15, 00:15:00,VALID,919.53,VALID,0,VALID,96.6992,VALID,0.0509425,VALID,20.0985,VALID,115,VALID,0.384811,
2003-10-15, 00:16:00,VALID,919.55,VALID,0,VALID,96.8734,VALID,0.0169808,VALID,20.0987,VALID,115,VALID,0.0300781,
2003-10-15, 00:17:00,VALID,919.548,VALID,0,VALID,96.984,VALID,0,VALID,20.1084,VALID,115,VALID,0,
2003-10-15, 00:18:00,VALID,919.535,VALID,0,VALID,96.9611,VALID,0,VALID,20.1189,VALID,115,VALID,0.0655571,
2003-10-15, 00:19:00,VALID,919.508,VALID,0,VALID,96.9039,VALID,0,VALID,20.1186,VALID,115,VALID,0,
2003-10-15, 00:20:00,VALID,919.48,VALID,0,VALID,96.9242,VALID,-0.0169808,VALID,20.1278,VALID,115,VALID,0.000744048,
2003-10-15, 00:21:00,VALID,919.472,VALID,0,VALID,96.9967,VALID,0,VALID,20.1638,VALID,115,VALID,0.0126488,
2003-10-15, 00:22:00,VALID,919.458,VALID,0,VALID,96.9815,VALID,0,VALID,20.1897,VALID,112,VALID,0.108854,
2003-10-15, 00:23:00,VALID,919.431,VALID,0,VALID,96.881,VALID,0,VALID,20.1994,VALID,111,VALID,0.277902,
2003-10-15, 00:24:00,VALID,919.424,VALID,0,VALID,96.6801,VALID,0,VALID,20.1927,VALID,111,VALID,0.134766,
2003-10-15, 00:25:00,VALID,919.417,VALID,0,VALID,96.6712,VALID,0.0169808,VALID,20.1897,VALID,153,VALID,0.336682,
2003-10-15, 00:26:00,VALID,919.403,VALID,0,VALID,96.4868,VALID,0,VALID,20.1601,VALID,227,VALID,0.412574,
2003-10-15, 00:27:00,VALID,919.37,VALID,0,VALID,96.5237,VALID,0.0169808,VALID,20.1375,VALID,211,VALID,0.227134,
2003-10-15, 00:28:00,VALID,919.346,VALID,0,VALID,96.5148,VALID,0.0509425,VALID,20.1151,VALID,184,VALID,0.743118,
2003-10-15, 00:29:00,VALID,919.347,VALID,0,VALID,96.0812,VALID,0.0169808,VALID,20.0853,VALID,229,VALID,0.57867,
2003-10-15, 00:30:00,VALID,919.362,VALID,0,VALID,96.1613,VALID,0.0339617,VALID,20.1022,VALID,344,VALID,0.839757,
2003-10-15, 00:31:00,VALID,919.365,VALID,0,VALID,96.5631,VALID,0.0169808,VALID,20.1579,VALID,7,VALID,0.547724,
2003-10-15, 00:32:00,VALID,919.361,VALID,0,VALID,96.6025,VALID,0.0169808,VALID,20.1502,VALID,4,VALID,0.302734,
2003-10-15, 00:33:00,VALID,919.363,VALID,0,VALID,96.53,VALID,0.0169808,VALID,20.1407,VALID,3,VALID,0.031994,
2003-10-15, 00:34:00,VALID,919.357,VALID,0,VALID,96.5873,VALID,0.0169808,VALID,20.1313,VALID,3,VALID,0,
2003-10-15, 00:35:00,VALID,919.344,VALID,0,VALID,96.628,VALID,0.0169808,VALID,20.1313,VALID,3,VALID,0,
2003-10-15, 00:36:00,VALID,919.319,VALID,0,VALID,96.7818,VALID,0.0169808,VALID,20.1405,VALID,3,VALID,0.312855,
2003-10-15, 00:37:00,VALID,919.307,VALID,0,VALID,96.8963,VALID,0.0509425,VALID,20.1636,VALID,3,VALID,0.383333,
2003-10-15, 00:38:00,VALID,919.296,VALID,0,VALID,96.764,VALID,0.0169808,VALID,20.18,VALID,3,VALID,0.163876,
2003-10-15, 00:39:00,VALID,919.303,VALID,0,VALID,96.5224,VALID,0.0169808,VALID,20.1827,VALID,3,VALID,0.0639205,
2003-10-15, 00:40:00,VALID,919.282,VALID,0,VALID,96.2872,VALID,0.0169808,VALID,20.1864,VALID,3,VALID,0.00508721,
2003-10-15, 00:41:00,VALID,919.26,VALID,0,VALID,96.0863,VALID,0.0169808,VALID,20.1802,VALID,5,VALID,0.0455412,
2003-10-15, 00:42:00,VALID,919.225,VALID,0,VALID,95.8612,VALID,0,VALID,20.1703,VALID,103,VALID,0.591619,
2003-10-15, 00:43:00,VALID,919.208,VALID,0,VALID,95.9705,VALID,0,VALID,20.1442,VALID,107,VALID,0.513494,
2003-10-15, 00:44:00,VALID,919.196,VALID,0,VALID,96.1854,VALID,0.0679233,VALID,20.1273,VALID,107,VALID,0.0877131,
2003-10-15, 00:45:00,VALID,919.203,VALID,0,VALID,96.1613,VALID,0.0509425,VALID,20.1246,VALID,107,VALID,0,
2003-10-15, 00:46:00,VALID,919.204,VALID,0,VALID,96.1753,VALID,0.0509425,VALID,20.1122,VALID,119,VALID,0.205669,
2003-10-15, 00:47:00,VALID,919.199,VALID,0,VALID,96.3088,VALID,0.0509425,VALID,20.0955,VALID,256,VALID,0.441602,
2003-10-15, 00:48:00,VALID,919.203,VALID,0,VALID,96.3647,VALID,0.0339617,VALID,20.0699,VALID,256,VALID,0.0734375,
2003-10-15, 00:49:00,VALID,919.18,VALID,0,VALID,96.5873,VALID,-0.0679233,VALID,20.0642,VALID,279,VALID,0.204033,
2003-10-15, 00:50:00,VALID,919.166,VALID,0,VALID,96.7144,VALID,-0.101885,VALID,20.0945,VALID,343,VALID,0.581936,
2003-10-15, 00:51:00,VALID,919.161,VALID,0,VALID,96.6737,VALID,-0.0679233,VALID,20.0838,VALID,344,VALID,0.451308,
2003-10-15, 00:52:00,VALID,919.123,VALID,0,VALID,96.6445,VALID,-0.0509425,VALID,20.0747,VALID,344,VALID,0.335379,
2003-10-15, 00:53:00,VALID,919.082,VALID,0,VALID,96.778,VALID,-0.0679233,VALID,20.0588,VALID,344,VALID,0.147693,
2003-10-15, 00:54:00,VALID,919.07,VALID,0,VALID,96.9128,VALID,-0.0509425,VALID,20.0607,VALID,344,VALID,0.314808,
2003-10-15, 00:55:00,VALID,919.049,VALID,0,VALID,96.8772,VALID,-0.0169808,VALID,20.054,VALID,17,VALID,0.395117,
2003-10-15, 00:56:00,VALID,919.031,VALID,0,VALID,96.8568,VALID,-0.0169808,VALID,20.0612,VALID,20,VALID,0.177507,
2003-10-15, 00:57:00,VALID,919.022,VALID,0,VALID,96.8657,VALID,-0.0849042,VALID,20.0647,VALID,20,VALID,0,
2003-10-15, 00:58:00,VALID,919.024,VALID,0,VALID,96.7717,VALID,-0.0679233,VALID,20.0612,VALID,20,VALID,0,
2003-10-15, 00:59:00,VALID,919.022,VALID,0,VALID,96.7666,VALID,-0.0339617,VALID,20.0615,VALID,20,VALID,0,
2003-10-15, 01:00:00,VALID,919.027,VALID,0,VALID,96.6725,VALID,-0.0509425,VALID,20.0583,VALID,20,VALID,0.065407,
2003-10-15, 01:01:00,VALID,919.037,VALID,0,VALID,96.6038,VALID,-0.0849042,VALID,20.0488,VALID,20,VALID,0.353379,
2003-10-15, 01:02:00,VALID,919.057,VALID,0,VALID,96.6661,VALID,-0.101885,VALID,20.016,VALID,101,VALID,0.450639,
2003-10-15, 01:03:00,VALID,919.06,VALID,0,VALID,96.7793,VALID,-0.0849042,VALID,20.0068,VALID,160,VALID,0.870833,
2003-10-15, 01:04:00,VALID,919.048,VALID,0,VALID,96.8683,VALID,0.0169808,VALID,19.9857,VALID,146,VALID,0.790737,
2003-10-15, 01:05:00,VALID,919.047,VALID,0,VALID,96.7386,VALID,0.0339617,VALID,19.9695,VALID,169,VALID,0.50109,
2003-10-15, 01:06:00,VALID,919.038,VALID,0,VALID,96.7449,VALID,0.0679233,VALID,19.97,VALID,214,VALID,0.550781,
2003-10-15, 01:07:00,VALID,919.013,VALID,0,VALID,96.7729,VALID,0.0509425,VALID,19.9601,VALID,148,VALID,0.398958,
2003-10-15, 01:08:00,VALID,919.019,VALID,0,VALID,96.9026,VALID,0.0509425,VALID,19.9497,VALID,182,VALID,0.0964134,
2003-10-15, 01:09:00,VALID,919.028,VALID,0,VALID,96.9624,VALID,0.0679233,VALID,19.9765,VALID,290,VALID,0.713481,
2003-10-15, 01:10:00,VALID,919.035,VALID,0,VALID,96.9611,VALID,0.0509425,VALID,19.9464,VALID,264,VALID,0.40516,
2003-10-15, 01:11:00,VALID,919.03,VALID,0,VALID,97.0997,VALID,0.0339617,VALID,19.9569,VALID,250,VALID,0.412695,
2003-10-15, 01:12:00,VALID,919.026,VALID,0,VALID,97.2536,VALID,0.0339617,VALID,19.9434,VALID,222,VALID,0.28032,
2003-10-15, 01:13:00,VALID,919.024,VALID,0,VALID,97.3159,VALID,0.0339617,VALID,19.9308,VALID,212,VALID,0.369056,
2003-10-15, 01:14:00,VALID,918.991,VALID,0,VALID,97.3553,VALID,0.0509425,VALID,19.9246,VALID,191,VALID,0.323331,
2003-10-15, 01:15:00,VALID,918.982,VALID,0,VALID,97.3718,VALID,0.0509425,VALID,19.9343,VALID,191,VALID,0.09375,
2003-10-15, 01:16:00,VALID,918.992,VALID,0,VALID,97.4774,VALID,0.0169808,VALID,19.931,VALID,191,VALID,0,
2003-10-15, 01:17:00,VALID,919.003,VALID,0,VALID,97.5562,VALID,0.0509425,VALID,19.9469,VALID,191,VALID,0,
2003-10-15, 01:18:00,VALID,919.006,VALID,0,VALID,97.5079,VALID,0.0509425,VALID,19.9499,VALID,191,VALID,0.0612282,
2003-10-15, 01:19:00,VALID,919.004,VALID,0,VALID,97.4164,VALID,0,VALID,19.9546,VALID,191,VALID,0.126389,
2003-10-15, 01:20:00,VALID,919.004,VALID,0,VALID,97.3223,VALID,0,VALID,19.9514,VALID,166,VALID,0.270597,
2003-10-15, 01:21:00,VALID,918.978,VALID,0,VALID,97.2727,VALID,0,VALID,19.9382,VALID,151,VALID,0.25,
2003-10-15, 01:22:00,VALID,918.976,VALID,0,VALID,97.2917,VALID,0.0169808,VALID,19.9377,VALID,151,VALID,0.0257812,
2003-10-15, 01:23:00,VALID,918.975,VALID,0,VALID,97.279,VALID,-0.0169808,VALID,19.9417,VALID,151,VALID,0.0106027,
2003-10-15, 01:24:00,VALID,918.967,VALID,0,VALID,97.1976,VALID,-0.0339617,VALID,19.9546,VALID,151,VALID,0.0924202,
2003-10-15, 01:25:00,VALID,918.976,VALID,0,VALID,97.1938,VALID,0,VALID,19.9509,VALID,152,VALID,0.0494141,
2003-10-15, 01:26:00,VALID,918.964,VALID,0,VALID,97.1811,VALID,0,VALID,19.9576,VALID,192,VALID,0.216025,
2003-10-15, 01:27:00,VALID,918.953,VALID,0,VALID,96.6954,VALID,0,VALID,19.9417,VALID,232,VALID,0.389695,
2003-10-15, 01:28:00,VALID,918.956,VALID,0,VALID,96.3609,VALID,0,VALID,19.9283,VALID,232,VALID,0.107279,
2003-10-15, 01:29:00,VALID,918.934,VALID,0,VALID,96.0863,VALID,0,VALID,19.9382,VALID,232,VALID,0.0794588,
2003-10-15, 01:30:00,VALID,918.916,VALID,0,VALID,95.8904,VALID,-0.0339617,VALID,19.9579,VALID,232,VALID,0.0189453,
2003-10-15, 01:31:00,VALID,918.889,VALID,0,VALID,96.0392,VALID,-0.0169808,VALID,19.9874,VALID,325,VALID,0.352121,
2003-10-15, 01:32:00,VALID,918.867,VALID,0,VALID,96.3813,VALID,-0.0509425,VALID,20.02,VALID,338,VALID,0.400073,
2003-10-15, 01:33:00,VALID,918.856,VALID,0,VALID,96.4728,VALID,-0.0169808,VALID,20.0125,VALID,345,VALID,0.442827,
2003-10-15, 01:34:00,VALID,918.839,VALID,0,VALID,96.558,VALID,-0.0169808,VALID,20.0001,VALID,346,VALID,0.404535,
2003-10-15, 01:35:00,VALID,918.802,VALID,0,VALID,96.7805,VALID,-0.0509425,VALID,19.9934,VALID,360,VALID,0.614025,
2003-10-15, 01:36:00,VALID,918.779,VALID,0,VALID,96.8746,VALID,-0.0339617,VALID,19.9835,VALID,5,VALID,0.643895,
2003-10-15, 01:37:00,VALID,918.757,VALID,0,VALID,97.0018,VALID,-0.0339617,VALID,19.9872,VALID,5,VALID,0.504261,
2003-10-15, 01:38:00,VALID,918.71,VALID,0,VALID,97.0552,VALID,-0.0509425,VALID,19.9676,VALID,5,VALID,0.700763,
2003-10-15, 01:39:00,VALID,918.673,VALID,0,VALID,97.1264,VALID,-0.0169808,VALID,19.9447,VALID,13,VALID,0.921875,
2003-10-15, 01:40:00,VALID,918.637,VALID,0,VALID,97.2892,VALID,-0.0169808,VALID,19.9452,VALID,9,VALID,0.871652,
2003-10-15, 01:41:00,VALID,918.619,VALID,0,VALID,97.2332,VALID,-0.0169808,VALID,19.9159,VALID,351,VALID,0.660065,
2003-10-15, 01:42:00,VALID,918.634,VALID,0,VALID,97.3998,VALID,-0.0339617,VALID,19.8995,VALID,354,VALID,0.354288,
2003-10-15, 01:43:00,VALID,918.634,VALID,0,VALID,97.6541,VALID,-0.0679233,VALID,19.9129,VALID,354,VALID,0.0644531,
2003-10-15, 01:44:00,VALID,918.64,VALID,0,VALID,97.7444,VALID,-0.0679233,VALID,19.9194,VALID,354,VALID,0,
2003-10-15, 01:45:00,VALID,918.628,VALID,0,VALID,97.7864,VALID,-0.0679233,VALID,19.9263,VALID,354,VALID,0.00053267,
2003-10-15, 01:46:00,VALID,918.614,VALID,0,VALID,97.8233,VALID,-0.0679233,VALID,19.933,VALID,356,VALID,0.333452,
2003-10-15, 01:47:00,VALID,918.596,VALID,0,VALID,97.8233,VALID,-0.0509425,VALID,19.9358,VALID,357,VALID,0.0626905,
2003-10-15, 01:48:00,VALID,918.589,VALID,0,VALID,97.9008,VALID,-0.0509425,VALID,19.936,VALID,357,VALID,0,
2003-10-15, 01:49:00,VALID,918.577,VALID,0,VALID,98.014,VALID,0.0509425,VALID,19.9539,VALID,357,VALID,0,
2003-10-15, 01:50:00,VALID,918.573,VALID,0,VALID,97.953,VALID,0.0679233,VALID,19.9504,VALID,357,VALID,0,
2003-10-15, 01:51:00,VALID,918.577,VALID,0,VALID,97.8945,VALID,0.0679233,VALID,19.9472,VALID,357,VALID,0,
2003-10-15, 01:52:00,VALID,918.603,VALID,0,VALID,97.9059,VALID,0.0509425,VALID,19.9474,VALID,327,VALID,0.254687,
2003-10-15, 01:53:00,VALID,918.599,VALID,0,VALID,97.7546,VALID,0.0679233,VALID,19.9119,VALID,275,VALID,0.313227,
2003-10-15, 01:54:00,VALID,918.608,VALID,0,VALID,97.7902,VALID,0.0679233,VALID,19.8702,VALID,275,VALID,0.0703125,
2003-10-15, 01:55:00,VALID,918.573,VALID,0,VALID,98.0089,VALID,0.0679233,VALID,19.8632,VALID,275,VALID,0,
2003-10-15, 01:56:00,VALID,918.574,VALID,0,VALID,98.1488,VALID,0.0509425,VALID,19.8627,VALID,275,VALID,0,
2003-10-15, 01:57:00,VALID,918.586,VALID,0,VALID,98.0852,VALID,0.0849042,VALID,19.8597,VALID,275,VALID,0.0179869,
2003-10-15, 01:58:00,VALID,918.568,VALID,0,VALID,98.0928,VALID,0.0339617,VALID,19.8535,VALID,275,VALID,0,
2003-10-15, 01:59:00,VALID,918.54,VALID,0,VALID,98.1666,VALID,0.0679233,VALID,19.8667,VALID,280,VALID,0.000355114,
2003-10-15, 02:00:00,VALID,918.519,VALID,0,VALID,98.1208,VALID,0.0849042,VALID,19.8533,VALID,39,VALID,0.661133,
2003-10-15, 02:01:00,VALID,918.503,VALID,0,VALID,98.1552,VALID,0.0509425,VALID,19.857,VALID,14,VALID,0.526526,
2003-10-15, 02:02:00,VALID,918.497,VALID,0,VALID,98.2531,VALID,0.0509425,VALID,19.86,VALID,14,VALID,0.275923,
2003-10-15, 02:03:00,VALID,918.472,VALID,0,VALID,98.3205,VALID,0.0339617,VALID,19.8692,VALID,14,VALID,0.45348,
2003-10-15, 02:04:00,VALID,918.469,VALID,0,VALID,98.2302,VALID,-0.0339617,VALID,19.8682,VALID,14,VALID,0.702762,
2003-10-15, 02:05:00,VALID,918.462,VALID,0,VALID,97.9975,VALID,-0.0509425,VALID,19.8389,VALID,16,VALID,1.15589,
2003-10-15, 02:06:00,VALID,918.441,VALID,0,VALID,97.7546,VALID,-0.0169808,VALID,19.8195,VALID,23,VALID,1.09453,
2003-10-15, 02:07:00,VALID,918.426,VALID,0,VALID,97.7063,VALID,-0.0339617,VALID,19.8063,VALID,10,VALID,1.10356,
2003-10-15, 02:08:00,VALID,918.399,VALID,0,VALID,97.5397,VALID,-0.0509425,VALID,19.7974,VALID,9,VALID,1.10884,
2003-10-15, 02:09:00,VALID,918.366,VALID,0,VALID,97.3693,VALID,-0.0169808,VALID,19.7708,VALID,12,VALID,1.02474,
2003-10-15, 02:10:00,VALID,918.338,VALID,0,VALID,97.4736,VALID,-0.0849042,VALID,19.7681,VALID,15,VALID,0.793826,
2003-10-15, 02:11:00,VALID,918.336,VALID,0,VALID,97.2498,VALID,-0.0849042,VALID,19.7454,VALID,12,VALID,0.696403,
2003-10-15, 02:12:00,VALID,918.344,VALID,0,VALID,97.0247,VALID,-0.0849042,VALID,19.7159,VALID,18,VALID,0.811198,
2003-10-15, 02:13:00,VALID,918.342,VALID,0,VALID,96.8925,VALID,-0.0679233,VALID,19.7032,VALID,20,VALID,0.72619,
2003-10-15, 02:14:00,VALID,918.343,VALID,0,VALID,96.937,VALID,-0.0509425,VALID,19.7099,VALID,23,VALID,0.714472,
2003-10-15, 02:15:00,VALID,918.353,VALID,0,VALID,97.0298,VALID,-0.0849042,VALID,19.7191,VALID,24,VALID,0.853423,
2003-10-15, 02:16:00,VALID,918.34,VALID,0,VALID,96.9039,VALID,-0.0339617,VALID,19.7159,VALID,18,VALID,0.804869,
2003-10-15, 02:17:00,VALID,918.331,VALID,0,VALID,96.731,VALID,-0.0169808,VALID,19.7097,VALID,7,VALID,0.550694,
2003-10-15, 02:18:00,VALID,918.311,VALID,0,VALID,96.7538,VALID,-0.0339617,VALID,19.6895,VALID,13,VALID,0.862909,
2003-10-15, 02:19:00,VALID,918.308,VALID,0,VALID,96.7259,VALID,-0.0849042,VALID,19.6938,VALID,9,VALID,0.946354,
2003-10-15, 02:20:00,VALID,918.297,VALID,0,VALID,96.6534,VALID,-0.0339617,VALID,19.6876,VALID,8,VALID,1.27166,
2003-10-15, 02:21:00,VALID,918.305,VALID,0,VALID,96.7195,VALID,-0.0339617,VALID,19.6744,VALID,8,VALID,0.923692,
2003-10-15, 02:22:00,VALID,918.315,VALID,0,VALID,96.9357,VALID,-0.0679233,VALID,19.6642,VALID,26,VALID,0.73418,
2003-10-15, 02:23:00,VALID,918.309,VALID,0,VALID,97.1557,VALID,-0.0679233,VALID,19.694,VALID,26,VALID,0.772266,
2003-10-15, 02:24:00,VALID,918.297,VALID,0,VALID,97.2701,VALID,-0.0679233,VALID,19.697,VALID,23,VALID,0.908346,
2003-10-15, 02:25:00,VALID,918.275,VALID,0,VALID,97.2332,VALID,-0.0509425,VALID,19.6895,VALID,24,VALID,0.8508,
2003-10-15, 02:26:00,VALID,918.279,VALID,0,VALID,97.0883,VALID,-0.0169808,VALID,19.6771,VALID,24,VALID,0.996548,
2003-10-15, 02:27:00,VALID,918.268,VALID,0,VALID,97.0476,VALID,-0.0339617,VALID,19.6806,VALID,24,VALID,1.00508,
2003-10-15, 02:28:00,VALID,918.273,VALID,0,VALID,96.9382,VALID,-0.0339617,VALID,19.6846,VALID,18,VALID,0.712426,
2003-10-15, 02:29:00,VALID,918.276,VALID,0,VALID,96.6419,VALID,-0.0679233,VALID,19.6418,VALID,18,VALID,0.701672,
2003-10-15, 02:30:00,VALID,918.296,VALID,0,VALID,96.5593,VALID,-0.0849042,VALID,19.6359,VALID,28,VALID,0.421684,
2003-10-15, 02:31:00,VALID,918.304,VALID,0,VALID,96.5339,VALID,-0.0849042,VALID,19.6326,VALID,28,VALID,0.501453,
2003-10-15, 02:32:00,VALID,918.29,VALID,0,VALID,96.4627,VALID,-0.0679233,VALID,19.6302,VALID,22,VALID,0.682165,
2003-10-15, 02:33:00,VALID,918.296,VALID,0,VALID,96.5351,VALID,-0.0849042,VALID,19.6103,VALID,15,VALID,0.831845,
2003-10-15, 02:34:00,VALID,918.305,VALID,0,VALID,96.483,VALID,0.0339617,VALID,19.6051,VALID,23,VALID,0.726563,
2003-10-15, 02:35:00,VALID,918.295,VALID,0,VALID,96.5148,VALID,0.0169808,VALID,19.6053,VALID,15,VALID,0.119368,
2003-10-15, 02:36:00,VALID,918.296,VALID,0,VALID,96.5835,VALID,0.0509425,VALID,19.6086,VALID,15,VALID,0,
2003-10-15, 02:37:00,VALID,918.266,VALID,0,VALID,96.6432,VALID,0.0169808,VALID,19.6118,VALID,15,VALID,0.391667,
2003-10-15, 02:38:00,VALID,918.237,VALID,0,VALID,96.5771,VALID,0,VALID,19.6153,VALID,25,VALID,0.999645,
2003-10-15, 02:39:00,VALID,918.203,VALID,0,VALID,96.4194,VALID,0.0339617,VALID,19.5951,VALID,19,VALID,1.17413,
2003-10-15, 02:40:00,VALID,918.166,VALID,0,VALID,96.1371,VALID,0.0169808,VALID,19.573,VALID,14,VALID,1.19336,
2003-10-15, 02:41:00,VALID,918.126,VALID,0,VALID,96.0011,VALID,0.0509425,VALID,19.5375,VALID,14,VALID,1.04576,
2003-10-15, 02:42:00,VALID,918.114,VALID,0,VALID,95.8752,VALID,0.0509425,VALID,19.5147,VALID,18,VALID,1.01162,
2003-10-15, 02:43:00,VALID,918.107,VALID,0,VALID,95.9337,VALID,0.0509425,VALID,19.4923,VALID,17,VALID,0.960029,
2003-10-15, 02:44:00,VALID,918.111,VALID,0,VALID,96.0926,VALID,0.0169808,VALID,19.4928,VALID,19,VALID,0.96766,
2003-10-15, 02:45:00,VALID,918.106,VALID,0,VALID,96.1702,VALID,0,VALID,19.463,VALID,21,VALID,0.820676,
2003-10-15, 02:46:00,VALID,918.102,VALID,0,VALID,96.1626,VALID,0.0169808,VALID,19.4503,VALID,2,VALID,0.738281,
2003-10-15, 02:47:00,VALID,918.071,VALID,0,VALID,95.9235,VALID,0,VALID,19.4411,VALID,19,VALID,0.914063,
2003-10-15, 02:48:00,VALID,918.047,VALID,0,VALID,95.9591,VALID,0.0169808,VALID,19.4312,VALID,12,VALID,0.583274,
2003-10-15, 02:49:00,VALID,918.035,VALID,0,VALID,96.0672,VALID,0,VALID,19.4409,VALID,7,VALID,0.404726,
2003-10-15, 02:50:00,VALID,918.023,VALID,0,VALID,96.0379,VALID,0.0169808,VALID,19.4245,VALID,3,VALID,0.707031,
2003-10-15, 02:51:00,VALID,918.038,VALID,0,VALID,95.982,VALID,0.0169808,VALID,19.4312,VALID,349,VALID,0.570685,
2003-10-15, 02:52:00,VALID,918.042,VALID,0,VALID,95.7645,VALID,0.0339617,VALID,19.4053,VALID,317,VALID,0.558036,
2003-10-15, 02:53:00,VALID,918.026,VALID,0,VALID,95.645,VALID,0.0169808,VALID,19.3927,VALID,300,VALID,0.400073,
2003-10-15, 02:54:00,VALID,918.012,VALID,0,VALID,95.7544,VALID,0,VALID,19.3924,VALID,17,VALID,0.529652,
2003-10-15, 02:55:00,VALID,918.006,VALID,0,VALID,95.9159,VALID,0.0169808,VALID,19.389,VALID,27,VALID,0.22561,
2003-10-15, 02:56:00,VALID,918,VALID,0,VALID,96.0176,VALID,0.0339617,VALID,19.4212,VALID,27,VALID,0.221168,
2003-10-15, 02:57:00,VALID,918.006,VALID,0,VALID,96.1142,VALID,0,VALID,19.424,VALID,27,VALID,0.14008,
2003-10-15, 02:58:00,VALID,918.015,VALID,0,VALID,96.0863,VALID,0.0339617,VALID,19.4349,VALID,26,VALID,0.106076,
2003-10-15, 02:59:00,VALID,918.021,VALID,0,VALID,95.996,VALID,0.0169808,VALID,19.4153,VALID,345,VALID,0.152439,
2003-10-15, 03:00:00,VALID,918.029,VALID,0,VALID,96.2172,VALID,0.0339617,VALID,19.4217,VALID,331,VALID,0.0118096,
2003-10-15, 03:01:00,VALID,918.037,VALID,0,VALID,96.2808,VALID,0,VALID,19.4113,VALID,331,VALID,0,
2003-10-15, 03:02:00,VALID,918.044,VALID,0,VALID,96.4868,VALID,0.0169808,VALID,19.4183,VALID,331,VALID,0,
2003-10-15, 03:03:00,VALID,918.044,VALID,0,VALID,96.6699,VALID,0.0169808,VALID,19.4245,VALID,338,VALID,0.124092,
2003-10-15, 03:04:00,VALID,918.035,VALID,0,VALID,97.0438,VALID,0,VALID,19.4602,VALID,7,VALID,0.653888,
2003-10-15, 03:05:00,VALID,918.037,VALID,0,VALID,97.1582,VALID,0.0169808,VALID,19.4702,VALID,7,VALID,0.319041,
2003-10-15, 03:06:00,VALID,918.038,VALID,0.2,VALID,97.3604,VALID,0.0339617,VALID,19.4794,VALID,19,VALID,0.64117,
2003-10-15, 03:07:00,VALID,918.035,VALID,0,VALID,97.5651,VALID,0.0509425,VALID,19.4893,VALID,19,VALID,0.607376,
2003-10-15, 03:08:00,VALID,918.036,VALID,0,VALID,97.8195,VALID,0,VALID,19.4891,VALID,16,VALID,0.536337,
2003-10-15, 03:09:00,VALID,918.035,VALID,0.2,VALID,98.0255,VALID,0.0509425,VALID,19.5087,VALID,23,VALID,0.417696,
2003-10-15, 03:10:00,VALID,918.038,VALID,0,VALID,98.1234,VALID,0.0339617,VALID,19.5184,VALID,24,VALID,0.478924,
2003-10-15, 03:11:00,VALID,918.027,VALID,0.2,VALID,98.1933,VALID,0.0679233,VALID,19.5087,VALID,24,VALID,0.357195,
2003-10-15, 03:12:00,VALID,918.026,VALID,0,VALID,98.2683,VALID,0.0509425,VALID,19.4923,VALID,24,VALID,0.182884,
2003-10-15, 03:13:00,VALID,918.026,VALID,0.2,VALID,98.2442,VALID,0.0339617,VALID,19.4697,VALID,24,VALID,0.0184028,
2003-10-15, 03:14:00,VALID,918.051,VALID,0,VALID,98.3701,VALID,0,VALID,19.4669,VALID,37,VALID,0.0752668,
2003-10-15, 03:15:00,VALID,918.055,VALID,0.2,VALID,98.3866,VALID,0.0169808,VALID,19.4476,VALID,67,VALID,0.134816,
2003-10-15, 03:16:00,VALID,918.07,VALID,0,VALID,98.2836,VALID,0.0679233,VALID,19.4026,VALID,199,VALID,0.227134,
2003-10-15, 03:17:00,VALID,918.071,VALID,0.2,VALID,98.2238,VALID,0,VALID,19.3696,VALID,198,VALID,0,
2003-10-15, 03:18:00,VALID,918.083,VALID,0,VALID,98.2556,VALID,0.0509425,VALID,19.3375,VALID,189,VALID,0.328125,
2003-10-15, 03:19:00,VALID,918.096,VALID,0.2,VALID,98.2442,VALID,-0.0849042,VALID,19.2903,VALID,234,VALID,0.480015,
2003-10-15, 03:20:00,VALID,918.103,VALID,0,VALID,98.3039,VALID,-0.0509425,VALID,19.2322,VALID,230,VALID,0.365057,
2003-10-15, 03:21:00,VALID,918.106,VALID,0.2,VALID,98.4667,VALID,-0.0339617,VALID,19.1962,VALID,259,VALID,0.291349,
2003-10-15, 03:22:00,VALID,918.106,VALID,0,VALID,98.6918,VALID,-0.0169808,VALID,19.1932,VALID,307,VALID,0.268229,
2003-10-15, 03:23:00,VALID,918.12,VALID,0.2,VALID,98.8316,VALID,-0.0339617,VALID,19.1966,VALID,230,VALID,0.59976,
2003-10-15, 03:24:00,VALID,918.13,VALID,0,VALID,98.9003,VALID,-0.0849042,VALID,19.1581,VALID,244,VALID,0.786337,
2003-10-15, 03:25:00,VALID,918.114,VALID,0.2,VALID,99.0771,VALID,-0.101885,VALID,19.1514,VALID,239,VALID,0.131454,
2003-10-15, 03:26:00,VALID,918.097,VALID,0,VALID,99.2258,VALID,-0.0849042,VALID,19.1482,VALID,242,VALID,0.227095,
2003-10-15, 03:27:00,VALID,918.09,VALID,0,VALID,99.1915,VALID,-0.0849042,VALID,19.1261,VALID,244,VALID,0.246094,
2003-10-15, 03:28:00,VALID,918.095,VALID,0.2,VALID,99.2106,VALID,-0.0679233,VALID,19.0801,VALID,281,VALID,0.131981,
2003-10-15, 03:29:00,VALID,918.086,VALID,0,VALID,99.3352,VALID,-0.0849042,VALID,19.0776,VALID,39,VALID,0.424716,
2003-10-15, 03:30:00,VALID,918.1,VALID,0,VALID,99.2653,VALID,-0.101885,VALID,19.0677,VALID,60,VALID,0.158026,
2003-10-15, 03:31:00,VALID,918.115,VALID,0,VALID,99.2983,VALID,-0.0169808,VALID,19.0449,VALID,71,VALID,0.530185,
2003-10-15, 03:32:00,VALID,918.133,VALID,0,VALID,99.3606,VALID,-0.0679233,VALID,19.0421,VALID,187,VALID,0.610305,
2003-10-15, 03:33:00,VALID,918.129,VALID,0.2,VALID,99.4026,VALID,-0.0509425,VALID,19.0458,VALID,204,VALID,0.469113,
2003-10-15, 03:34:00,VALID,918.144,VALID,0,VALID,99.4331,VALID,-0.0509425,VALID,19.0188,VALID,228,VALID,0.334749,